Weather History for Henderson, NV

Change the Weather History Date:

Friday, April 4, 2014

  Actual Average (KLAS) Record (KLAS)
Temperature  
Mean Temperature 56 °F 64 °F  
Max Temperature 68 °F 75 °F 94 °F (1961)
Min Temperature 45 °F 53 °F 31 °F (1945)
Degree Days  
Heating Degree Days 8 3  
Month to date heating degree days 15  
Since 1 July heating degree days 1895  
Cooling Degree Days 0 2  
Month to date cooling degree days 8  
Year to date cooling degree days 39  
Growing Degree Days 6 (Base 50)    
Moisture  
Dew Point 17 °F    
Average Humidity 21    
Maximum Humidity 37    
Minimum Humidity 13    
Precipitation  
Precipitation 0.00 in 0.01 in 0.25 in (1965)
Month to date precipitation 0.03  
Year to date precipitation 1.77  
Snow  
Snow 0.00 in 0.00 in T in (1958)
Month to date snowfall 0.0  
Since 1 July snowfall 0.3  
Snow Depth -    
Sea Level Pressure  
Sea Level Pressure 29.90 in    
Wind  
Wind Speed 7 mph (South)    
Max Wind Speed 18 mph    
Max Gust Speed 25 mph    
Visibility 10 miles    
Events      
T = Trace of Precipitation, MM = Missing Value Source: NWS Daily Summary

Daily Weather History Graph

Daily Weather History Graph

Search for Another Location

Airport:

Trip Planner

Search our weather history database for the weather conditions in past years. The results will help you decide how hot, cold, wet, or windy it might be!

Date:

Astronomy

Apr. 04, 2014 Rise Set
Actual Time 6:22 AM PDT 7:04 PM PDT
Civil Twilight 5:56 AM PDT 7:30 PM PDT
Nautical Twilight 5:26 AM PDT 8:01 PM PDT
Astronomical Twilight 4:54 AM PDT 8:33 PM PDT
Moon 9:49 AM PDT (4/4) No Moon Set
Length of Visible Light 13h 34m
Length of Day
12h 42m
Waxing Crescent, 26% of the Moon is Illuminated
Apr 4
Waxing Crescent
Apr 7
First Quarter
Apr 15
Full
Apr 22
Last Quarter
Apr 28
New

Hourly Weather History & Observations

Time (PDT) Temp. Windchill Dew Point Humidity Pressure Visibility Wind Dir Wind Speed Gust Speed Precip Events Conditions
12:56 AM 50.0 °F - 15.1 °F 25% 29.99 in 10.0 mi South 10.4 mph - N/A   Clear
1:56 AM 48.9 °F - 15.1 °F 26% 29.99 in 10.0 mi SSE 5.8 mph - N/A   Clear
2:56 AM 48.9 °F - 14.0 °F 25% 29.97 in 10.0 mi South 4.6 mph - N/A   Clear
3:56 AM 46.9 °F - 17.1 °F 30% 29.96 in 10.0 mi SSW 4.6 mph - N/A   Clear
4:56 AM 46.9 °F - 15.1 °F 28% 29.96 in 10.0 mi South 6.9 mph - N/A   Clear
5:56 AM 45.9 °F 43.6 °F 21.0 °F 37% 29.96 in 10.0 mi SSE 4.6 mph - N/A   Clear
6:56 AM 46.9 °F - 18.1 °F 32% 29.96 in 10.0 mi SSE 6.9 mph - N/A   Clear
7:56 AM 52.0 °F - 15.1 °F 23% 29.97 in 10.0 mi Calm Calm - N/A   Clear
8:56 AM 55.9 °F - 20.1 °F 25% 29.97 in 10.0 mi Calm Calm - N/A   Clear
9:56 AM 57.9 °F - 20.1 °F 23% 29.97 in 10.0 mi NNW 3.5 mph - N/A   Clear
10:56 AM 61.0 °F - 22.1 °F 22% 29.97 in 10.0 mi NNE 5.8 mph - N/A   Clear
11:56 AM 63.9 °F - 19.0 °F 18% 29.94 in 10.0 mi NNE 3.5 mph - N/A   Clear
1:56 PM 68.0 °F - 21.0 °F 17% 29.87 in 10.0 mi NE 6.9 mph - N/A   Partly Cloudy
2:56 PM 66.9 °F - 16.2 °F 14% 29.85 in 10.0 mi Variable 3.5 mph - N/A   Partly Cloudy
3:56 PM 68.9 °F - 17.1 °F 14% 29.82 in 10.0 mi SW 18.4 mph 25.3 mph N/A   Partly Cloudy
4:56 PM 66.9 °F - 15.1 °F 14% 29.82 in 10.0 mi SSW 11.5 mph 21.9 mph N/A   Mostly Cloudy
5:56 PM 65.8 °F - 13.1 °F 13% 29.81 in 10.0 mi WSW 6.9 mph - N/A   Scattered Clouds
6:56 PM 63.9 °F - 13.1 °F 14% 29.81 in 10.0 mi SW 16.1 mph - N/A   Partly Cloudy
7:56 PM 63.0 °F - 13.1 °F 14% 29.82 in 10.0 mi SSW 6.9 mph - N/A   Mostly Cloudy
8:56 PM 59.9 °F - 14.0 °F 17% 29.82 in 10.0 mi SSE 5.8 mph - N/A   Partly Cloudy
9:56 PM 55.9 °F - 15.1 °F 20% 29.82 in 10.0 mi South 5.8 mph - N/A   Clear
10:56 PM 54.9 °F - 15.1 °F 21% 29.81 in 10.0 mi SSW 9.2 mph - N/A   Clear
11:56 PM 52.9 °F - 15.1 °F 22% 29.81 in 10.0 mi SSW 10.4 mph - N/A   Overcast